When you browse on this site, cookies collect data to enhance your experience and personalize the content and advertising you see.
Visit our Privacy Policy to learn more. By continuing to use the site, you agree to this use of cookies and data.
  • In Portugal
  • List of Countries
  • For 7 days
  • Water Temperature
  • Satellite Maps
  • Weather Map
  • Weather Widgets
  • user-avatar
    Login

    Hourly Weather Janowiec

    Today, 19 February, Tuesday

    Time Temperature Precipitation Wind Pressure Humidity
    00:00 +3°C° 0 mm 2 mps 748 mmHg 85%
    01:00 +3°C° 0 mm 2 mps 748 mmHg 86%
    02:00 +3°C° 0 mm 2 mps 747 mmHg 86%
    03:00 +2°C° 0 mm 3 mps 747 mmHg 87%
    04:00 +2°C° 0 mm 3 mps 746 mmHg 87%
    05:00 +2°C° 0 mm 3 mps 746 mmHg 88%
    06:00 +1°C° 0 mm 3 mps 745 mmHg 88%
    07:00 +1°C° 0 mm 3 mps 745 mmHg 88%
    08:00 +3°C° 0 mm 4 mps 745 mmHg 85%
    09:00 +4°C° 0 mm 4 mps 745 mmHg 82%
    10:00 +5°C° 0 mm 5 mps 745 mmHg 78%
    11:00 +6°C° 0 mm 5 mps 745 mmHg 76%
    12:00 +7°C° 0 mm 5 mps 745 mmHg 74%
    13:00 +8°C° 0 mm 5 mps 745 mmHg 72%
    14:00 +7°C° 0.2 mm 5 mps 745 mmHg 75%
    15:00 +6°C° 0.2 mm 5 mps 745 mmHg 79%
    16:00 +6°C° 0.2 mm 4 mps 745 mmHg 83%
    17:00 +5°C° 0.1 mm 5 mps 745 mmHg 82%
    18:00 +5°C° 0.1 mm 5 mps 745 mmHg 80%
    19:00 +5°C° 0.1 mm 5 mps 745 mmHg 79%
    20:00 +5°C° 0.1 mm 5 mps 745 mmHg 81%
    21:00 +3°C° 0.1 mm 5 mps 745 mmHg 82%
    22:00 +3°C° 0.1 mm 5 mps 745 mmHg 84%
    23:00 +3°C° 0.1 mm 5 mps 745 mmHg 83%

    Tomorrow, 20 February, Wednesday

    Time Temperature Precipitation Wind Pressure Humidity
    00:00 +3°C° 0.1 mm 6 mps 745 mmHg 82%
    01:00 +3°C° 0.1 mm 6 mps 746 mmHg 82%
    02:00 +3°C° 0.1 mm 6 mps 746 mmHg 82%
    03:00 +3°C° 0.1 mm 6 mps 746 mmHg 82%
    04:00 +2°C° 0.1 mm 6 mps 746 mmHg 81%
    05:00 +2°C° 0.1 mm 6 mps 746 mmHg 81%
    06:00 +2°C° 0.1 mm 6 mps 746 mmHg 80%
    07:00 +2°C° 0.1 mm 6 mps 747 mmHg 79%
    08:00 +2°C° 0.1 mm 6 mps 747 mmHg 78%
    09:00 +3°C° 0.1 mm 6 mps 748 mmHg 77%
    10:00 +3°C° 0.1 mm 6 mps 748 mmHg 76%
    11:00 +3°C° 0 mm 6 mps 749 mmHg 73%
    12:00 +3°C° 0 mm 6 mps 749 mmHg 71%
    13:00 +4°C° 0 mm 6 mps 749 mmHg 69%
    14:00 +4°C° 0 mm 6 mps 750 mmHg 70%
    15:00 +4°C° 0 mm 6 mps 750 mmHg 71%
    16:00 +5°C° 0 mm 5 mps 750 mmHg 72%
    17:00 +3°C° 0 mm 5 mps 750 mmHg 76%
    18:00 +4°C° 0 mm 4 mps 751 mmHg 80%
    19:00 +4°C° 0 mm 3 mps 751 mmHg 84%
    20:00 +3°C° 0 mm 3 mps 751 mmHg 87%
    21:00 +4°C° 0 mm 2 mps 751 mmHg 89%
    22:00 +4°C° 0 mm 2 mps 751 mmHg 92%
    23:00 +4°C° 0.2 mm 2 mps 751 mmHg 93%

    Day after tomorrow, 21 February, Thursday

    Time Temperature Precipitation Wind Pressure Humidity
    00:00 +4°C° 0.2 mm 2 mps 751 mmHg 93%
    01:00 +4°C° 0.2 mm 3 mps 751 mmHg 94%
    02:00 +4°C° 0.2 mm 3 mps 751 mmHg 93%
    03:00 +4°C° 0.2 mm 3 mps 751 mmHg 93%
    04:00 +4°C° 0.2 mm 4 mps 750 mmHg 93%
    05:00 +4°C° 0.2 mm 4 mps 750 mmHg 92%
    06:00 +4°C° 0.2 mm 4 mps 750 mmHg 92%
    07:00 +4°C° 0.2 mm 4 mps 750 mmHg 92%
    08:00 +4°C° 0.6 mm 4 mps 750 mmHg 92%
    09:00 +4°C° 0.6 mm 4 mps 750 mmHg 92%
    10:00 +5°C° 0.6 mm 4 mps 750 mmHg 92%
    11:00 +5°C° 0.5 mm 4 mps 750 mmHg 91%
    12:00 +5°C° 0.5 mm 4 mps 750 mmHg 90%
    13:00 +5°C° 0.5 mm 4 mps 750 mmHg 90%
    14:00 +5°C° 0.1 mm 4 mps 750 mmHg 90%
    15:00 +5°C° 0.1 mm 4 mps 750 mmHg 90%
    16:00 +5°C° 0.1 mm 4 mps 750 mmHg 90%
    17:00 +5°C° 0.1 mm 4 mps 751 mmHg 91%
    18:00 +5°C° 0.1 mm 4 mps 751 mmHg 92%
    19:00 +5°C° 0.1 mm 4 mps 751 mmHg 93%
    20:00 +5°C° 0.2 mm 4 mps 752 mmHg 93%
    21:00 +5°C° 0.2 mm 4 mps 753 mmHg 93%
    22:00 +5°C° 0.2 mm 4 mps 753 mmHg 93%
    23:00 +4°C° 0.3 mm 4 mps 754 mmHg 91%

    22 February, Friday

    Time Temperature Precipitation Wind Pressure Humidity
    00:00 +1°C° 0.3 mm 4 mps 755 mmHg 88%
    01:00 0°C° 0.3 mm 4 mps 756 mmHg 85%
    02:00 0°C° 0 mm 4 mps 756 mmHg 83%
    03:00 -1°C° 0 mm 4 mps 757 mmHg 81%
    04:00 -1°C° 0 mm 4 mps 758 mmHg 79%
    05:00 -1°C° 0 mm 4 mps 759 mmHg 78%
    06:00 -2°C° 0 mm 4 mps 760 mmHg 76%
    07:00 -2°C° 0 mm 4 mps 761 mmHg 75%
    08:00 -2°C° 0 mm 4 mps 762 mmHg 71%
    09:00 -1°C° 0 mm 4 mps 763 mmHg 68%
    10:00 -1°C° 0 mm 4 mps 764 mmHg 64%
    11:00 -1°C° 0 mm 4 mps 765 mmHg 61%
    12:00 +1°C° 0 mm 3 mps 765 mmHg 57%
    13:00 +1°C° 0 mm 3 mps 766 mmHg 54%
    14:00 +1°C° 0 mm 3 mps 766 mmHg 52%
    15:00 0°C° 0 mm 3 mps 766 mmHg 51%
    16:00 +1°C° 0 mm 2 mps 767 mmHg 49%
    17:00 -1°C° 0 mm 2 mps 767 mmHg 53%
    18:00 -2°C° 0 mm 2 mps 767 mmHg 56%
    19:00 -1°C° 0 mm 1 mps 768 mmHg 60%
    20:00 -1°C° 0 mm 1 mps 768 mmHg 59%
    21:00 -1°C° 0 mm 1 mps 768 mmHg 59%
    22:00 -1°C° 0 mm 1 mps 768 mmHg 58%
    23:00 -1°C° 0 mm 1 mps 768 mmHg 57%

    23 February, Saturday

    Time Temperature Precipitation Wind Pressure Humidity
    00:00 -1°C° 0 mm 1 mps 768 mmHg 56%
    01:00 -1°C° 0 mm 1 mps 768 mmHg 55%
    02:00 -3°C° 0 mm 2 mps 768 mmHg 54%
    03:00 -3°C° 0 mm 2 mps 768 mmHg 53%
    04:00 -3°C° 0 mm 2 mps 767 mmHg 52%
    05:00 -3°C° 0 mm 2 mps 767 mmHg 53%
    06:00 -3°C° 0 mm 2 mps 767 mmHg 53%
    07:00 -3°C° 0 mm 2 mps 767 mmHg 54%
    08:00 -2°C° 0 mm 2 mps 767 mmHg 50%
    09:00 -1°C° 0 mm 2 mps 767 mmHg 46%
    10:00 0°C° 0 mm 3 mps 767 mmHg 42%
    11:00 +1°C° 0 mm 3 mps 766 mmHg 43%
    12:00 +2°C° 0 mm 3 mps 766 mmHg 43%
    13:00 +3°C° 0 mm 3 mps 766 mmHg 43%
    14:00 +2°C° 0 mm 3 mps 765 mmHg 47%
    15:00 +2°C° 0 mm 3 mps 765 mmHg 52%
    16:00 +3°C° 0 mm 2 mps 764 mmHg 56%
    17:00 +2°C° 0 mm 2 mps 764 mmHg 63%
    18:00 +1°C° 0 mm 2 mps 764 mmHg 70%
    19:00 -1°C° 0 mm 2 mps 764 mmHg 78%
    20:00 +1°C° 0 mm 2 mps 764 mmHg 81%
    21:00 +1°C° 0 mm 2 mps 764 mmHg 84%
    22:00 +2°C° 0 mm 1 mps 764 mmHg 87%
    23:00 +2°C° 0 mm 1 mps 764 mmHg 90%

    24 February, Sunday

    Time Temperature Precipitation Wind Pressure Humidity
    00:00 +2°C° 0 mm 1 mps 764 mmHg 92%
    01:00 +2°C° 0 mm 1 mps 764 mmHg 95%
    02:00 +2°C° 0 mm 1 mps 764 mmHg 96%
    03:00 +2°C° 0 mm 1 mps 764 mmHg 96%
    04:00 +2°C° 0 mm 1 mps 764 mmHg 97%
    05:00 +2°C° 0 mm 1 mps 764 mmHg 97%
    06:00 +2°C° 0 mm 1 mps 764 mmHg 97%
    07:00 +3°C° 0 mm 1 mps 764 mmHg 97%
    08:00 +3°C° 0 mm 1 mps 764 mmHg 96%
    09:00 +4°C° 0 mm 1 mps 764 mmHg 94%
    10:00 +4°C° 0 mm 1 mps 765 mmHg 92%
    11:00 +5°C° 0 mm 1 mps 764 mmHg 92%
    12:00 +4°C° 0 mm 2 mps 764 mmHg 91%
    13:00 +4°C° 0 mm 2 mps 764 mmHg 91%
    14:00 +4°C° 0 mm 2 mps 764 mmHg 91%
    15:00 +5°C° 0 mm 2 mps 764 mmHg 91%
    16:00 +5°C° 0 mm 2 mps 763 mmHg 91%
    17:00 +4°C° 0 mm 2 mps 763 mmHg 92%
    18:00 +4°C° 0 mm 2 mps 763 mmHg 94%
    19:00 +3°C° 0 mm 2 mps 762 mmHg 95%
    20:00 +3°C° 0 mm 2 mps 762 mmHg 95%
    21:00 +2°C° 0 mm 3 mps 762 mmHg 94%
    22:00 +2°C° 0 mm 3 mps 762 mmHg 94%
    23:00 +1°C° 0 mm 3 mps 761 mmHg 95%
    Show more